Probability
0 0 0 0 0 0 0 0 0 0 0 0 0 0 45 87 97 100 100 100 74 13 3 3 6 6 23 13 13 3 6 26 35 74 97 97 94 84 81 81 71 45 3 0
0 0 0 0 0 0 0 0 0 0 0 0 0 0 19 52 52 19 68 87 90 74 32 29 48 48 16 6 3 0 0 10 16 77 97 90 68 55 58 55 52 6 0 0
0 0 0 0 0 0 0 0 0 0 0 0 0 0 0 6 0 0 0 0 29 35 39 26 0 0 0 0 3 6 6 3 6 16 45 42 10 0 0 3 0 0 0 0
0 0 0 0 0 0 0 0 0 0 0 0 0 0 0 0 0 0 0 0 0 0 0 0 0 0 0 0 0 10 13 10 3 6 10 6 3 3 0 0 3 0 0 0
0 0 0 0 0 0 0 0 0 0 0 0 0 0 0 0 0 0 0 0 0 0 0 0 0 0 0 0 6 42 55 55 23 3 3 0 0 0 0 0 0 0 0 0
0 0 0 0 0 0 0 0 0 0 0 0 0 0 0 0 0 0 0 0 0 0 0 0 0 0 0 0 3 3 6 16 23 6 3 6 10 0 0 0 0 0 0 0
0 0 0 0 0 0 0 0 0 0 0 0 0 0 0 0 0 0 0 0 0 0 0 0 0 0 0 0 0 0 0 3 10 16 3 3 3 0 0 0 0 0 0 0
0 0 0 0 0 0 0 0 0 0 0 0 0 0 0 0 0 0 0 0 0 0 0 0 0 0 0 0 0 0 0 16 6 10 0 0 0 0 3 0 0 0 0 0
0 0 0 0 0 0 0 0 0 0 0 0 0 0 0 0 0 0 0 0 0 0 0 0 0 0 0 0 0 0 19 19 6 0 0 3 3 6 3 0 0 0 0 0
0 0 0 0 0 0 0 0 0 0 0 0 0 0 0 0 0 0 0 0 0 0 0 0 0 0 0 0 0 3 0 0 0 0 0 23 26 0 0 0 0 0 0 0
0 0 0 0 0 0 0 0 0 0 0 0 0 0 0 0 0 0 0 0 0 0 0 0 0 0 0 0 0 0 0 0 0 0 0 0 3 0 0 0 0 0 0 0
0 0 0 0 0 0 0 0 0 0 0 0 0 0 0 0 0 0 0 0 0 0 0 0 0 0 0 0 0 0 0 0 0 0 0 0 0 0 0 0 0 0 0 0
0 0 0 0 0 0 0 0 0 0 0 0 0 0 0 0 0 0 0 0 0 0 0 0 0 0 0 0 0 0 0 0 0 0 0 0 0 0 0 0 0 0 0 0
0 0 0 0 0 0 0 0 0 0 0 0 0 0 0 0 0 0 0 0 0 0 0 0 0 0 0 0 0 0 0 0 0 0 0 0 0 0 0 0 0 0 0 0
0 0 0 0 0 0 0 0 0 0 0 0 0 0 0 0 0 0 0 0 0 0 0 0 0 0 0 0 0 0 0 0 0 0 0 0 0 0 0 0 0 0 0 0
0 0 0 0 0 0 0 0 0 0 0 0 0 0 0 0 0 0 0 0 0 0 0 0 0 0 0 0 0 0 0 0 0 0 0 0 6 0 0 0 0 0 0 0
0 0 0 0 0 0 0 0 0 0 0 0 0 0 0 0 0 0 0 0 0 0 0 0 0 0 0 0 0 0 0 0 0 0 0 0 0 0 0 0 0 0 0 0
0 0 0 0 0 0 0 0 0 0 0 0 0 0 0 0 0 0 0 0 0 0 0 0 0 0 0 0 0 0 0 0 0 0 0 0 10 0 0 0 0 0 0 0
0 0 0 0 0 0 0 0 0 0 0 0 0 0 0 0 0 0 0 0 0 0 0 0 0 0 0 0 0 0 0 0 0 0 0 0 3 0 0 0 0 0 0 0
0 0 0 0 0 0 0 0 0 0 0 0 0 0 0 0 0 0 0 0 0 0 0 0 0 0 0 0 0 0 0 0 0 0 0 0 0 0 6 6 0 0 0 0
0 0 0 0 0 0 0 0 0 0 0 0 0 0 0 0 0 0 0 0 0 0 0 0 0 0 0 0 0 0 0 0 0 0 0 0 0 0 0 0 3 0 0 0
0 0 0 0 0 0 0 0 0 0 0 0 0 0 0 0 0 0 0 0 0 0 0 0 0 0 0 0 0 0 0 0 0 0 0 0 0 0 0 0 0 0 0 0
0 0 0 0 0 0 0 0 0 0 0 0 0 0 0 0 0 0 0 0 0 0 0 0 0 0 0 0 0 0 0 0 0 0 0 0 0 0 0 0 0 0 0 0
0 0 0 0 0 0 0 0 0 0 0 0 0 0 0 0 0 0 0 0 0 0 0 0 0 0 0 0 0 0 0 0 0 0 0 0 0 0 0 0 0 0 0 0
0 0 0 0 0 0 0 0 0 0 0 0 0 0 0 0 0 0 0 0 0 0 0 0 0 0 0 0 0 0 0 0 0 0 0 0 0 0 0 0 0 0 0 0
0 0 0 0 0 0 0 0 0 0 0 0 0 0 0 0 0 0 0 0 0 0 0 0 0 0 0 0 0 0 0 0 0 0 0 0 0 0 0 0 0 0 0 0
Height
5877 5879 5879 5880 5881 5882 5883 5884 5883 5881 5882 5883 5882 5882 5883 5881 5880 5878 5877 5876 5877 5878 5877 5876 5875 5874 5874 5873 5873 5872 5870 5867 5865 5864 5864 5862 5860 5856 5852 5853 5854 5853 5854 5855
5875 5874 5876 5876 5876 5877 5878 5879 5878 5878 5877 5876 5875 5875 5875 5873 5872 5871 5869 5868 5868 5868 5867 5866 5865 5865 5865 5864 5863 5862 5860 5857 5854 5852 5850 5846 5845 5846 5842 5842 5845 5844 5845 5844
5871 5871 5872 5872 5872 5873 5873 5873 5871 5872 5872 5872 5870 5870 5867 5867 5865 5864 5863 5861 5860 5860 5859 5858 5857 5856 5856 5855 5853 5852 5849 5846 5841 5839 5837 5831 5830 5833 5832 5832 5835 5835 5831 5829
5866 5867 5868 5867 5867 5869 5869 5866 5866 5866 5867 5866 5863 5865 5860 5858 5859 5858 5856 5854 5852 5852 5852 5850 5848 5847 5846 5845 5843 5841 5839 5836 5832 5828 5825 5820 5818 5818 5819 5819 5821 5821 5817 5812
5861 5862 5862 5862 5861 5862 5861 5860 5860 5859 5859 5859 5858 5857 5855 5852 5850 5848 5846 5845 5844 5844 5843 5840 5838 5837 5835 5834 5832 5830 5827 5824 5821 5819 5815 5811 5808 5808 5808 5808 5807 5805 5801 5799
5856 5856 5856 5855 5855 5854 5854 5854 5854 5853 5853 5854 5851 5851 5851 5846 5844 5840 5839 5837 5836 5835 5833 5831 5828 5827 5825 5823 5820 5818 5814 5811 5809 5806 5804 5799 5795 5792 5792 5792 5790 5788 5786 5785
5854 5853 5852 5851 5851 5850 5850 5849 5850 5850 5850 5850 5845 5845 5844 5839 5838 5835 5832 5830 5827 5826 5825 5822 5820 5817 5814 5811 5808 5805 5803 5799 5796 5793 5789 5784 5780 5777 5774 5775 5775 5773 5771 5771
5852 5851 5849 5848 5848 5847 5846 5846 5845 5845 5844 5843 5840 5839 5837 5834 5831 5829 5826 5823 5820 5819 5817 5815 5812 5808 5804 5800 5797 5794 5791 5786 5781 5777 5773 5768 5764 5761 5757 5757 5760 5762 5761 5759
5850 5849 5848 5846 5845 5844 5843 5842 5841 5840 5839 5838 5837 5834 5831 5828 5824 5822 5819 5817 5814 5812 5809 5806 5803 5800 5795 5791 5786 5782 5778 5772 5766 5762 5756 5750 5746 5744 5743 5744 5748 5751 5752 5752
5850 5849 5847 5845 5844 5843 5841 5839 5838 5836 5834 5832 5832 5829 5825 5820 5816 5814 5812 5810 5807 5804 5800 5797 5794 5790 5786 5781 5776 5771 5765 5758 5751 5746 5741 5735 5732 5732 5732 5734 5737 5740 5742 5743
5847 5846 5844 5842 5840 5839 5837 5835 5833 5831 5829 5825 5822 5825 5821 5815 5809 5806 5805 5803 5799 5796 5792 5789 5785 5780 5775 5771 5765 5760 5752 5745 5741 5735 5728 5723 5720 5721 5724 5724 5726 5729 5733 5736
5844 5843 5841 5839 5837 5834 5832 5830 5828 5824 5821 5817 5813 5816 5813 5807 5801 5797 5796 5793 5789 5787 5784 5781 5777 5772 5767 5761 5755 5749 5740 5734 5732 5728 5722 5720 5716 5715 5715 5718 5722 5725 5728 5730
5839 5838 5836 5834 5832 5828 5825 5824 5821 5817 5813 5810 5806 5807 5801 5798 5792 5788 5784 5782 5779 5778 5775 5772 5768 5763 5758 5753 5746 5740 5733 5727 5724 5723 5719 5717 5717 5718 5714 5714 5717 5721 5723 5726
5836 5834 5833 5831 5828 5823 5820 5817 5813 5809 5806 5802 5800 5796 5793 5788 5783 5778 5774 5769 5769 5768 5765 5762 5760 5755 5750 5746 5739 5732 5728 5722 5718 5715 5714 5714 5715 5714 5712 5712 5714 5715 5716 5719
5833 5831 5828 5826 5821 5818 5815 5811 5806 5802 5800 5797 5794 5789 5784 5779 5775 5770 5765 5760 5758 5757 5755 5753 5752 5749 5743 5739 5732 5726 5723 5717 5712 5707 5704 5708 5709 5710 5710 5708 5708 5711 5714 5715
5828 5826 5823 5821 5816 5813 5809 5804 5800 5798 5795 5791 5788 5784 5778 5772 5767 5762 5756 5751 5749 5746 5746 5744 5744 5741 5737 5733 5726 5721 5717 5711 5704 5699 5699 5701 5703 5703 5704 5706 5705 5707 5709 5710
5823 5821 5819 5816 5812 5808 5804 5800 5796 5792 5789 5783 5780 5778 5772 5767 5762 5756 5750 5745 5741 5738 5736 5736 5735 5733 5730 5727 5721 5716 5711 5704 5698 5695 5694 5695 5697 5699 5701 5702 5702 5703 5704 5704
5819 5816 5813 5811 5808 5804 5802 5794 5791 5788 5783 5778 5774 5769 5764 5759 5755 5749 5743 5739 5733 5730 5728 5727 5726 5725 5723 5720 5716 5713 5708 5703 5699 5695 5694 5693 5693 5695 5695 5697 5698 5699 5700 5701
5814 5812 5808 5805 5801 5798 5793 5788 5783 5780 5777 5769 5765 5760 5754 5749 5745 5740 5734 5732 5726 5721 5718 5717 5717 5716 5716 5713 5711 5709 5705 5701 5698 5696 5693 5691 5692 5692 5692 5693 5694 5693 5694 5695
5810 5806 5804 5798 5793 5792 5788 5781 5776 5772 5766 5760 5756 5752 5747 5741 5738 5735 5727 5723 5719 5714 5709 5708 5708 5708 5708 5706 5705 5704 5702 5699 5695 5693 5691 5689 5686 5685 5685 5686 5687 5687 5687 5689
5806 5802 5797 5792 5787 5784 5780 5774 5768 5763 5759 5753 5747 5743 5738 5733 5729 5725 5720 5716 5712 5707 5702 5699 5699 5699 5699 5700 5700 5699 5698 5696 5693 5691 5688 5686 5684 5682 5680 5680 5680 5681 5682 5685
5802 5797 5790 5785 5781 5777 5770 5764 5758 5753 5747 5743 5738 5734 5729 5724 5719 5715 5710 5706 5703 5700 5696 5691 5690 5691 5692 5693 5694 5694 5694 5693 5691 5689 5687 5684 5682 5680 5679 5678 5678 5679 5681 5682
5794 5788 5782 5778 5774 5767 5758 5752 5745 5739 5735 5730 5726 5722 5717 5713 5709 5704 5701 5697 5693 5691 5689 5685 5682 5681 5683 5685 5687 5687 5687 5687 5687 5686 5684 5683 5680 5679 5678 5677 5677 5678 5679 5680
5784 5777 5773 5768 5763 5754 5747 5737 5729 5724 5719 5714 5711 5706 5702 5699 5696 5692 5688 5686 5682 5680 5679 5677 5675 5673 5674 5676 5678 5679 5680 5681 5681 5681 5681 5680 5679 5677 5677 5676 5675 5677 5678 5679
5772 5765 5760 5754 5746 5740 5732 5723 5716 5710 5704 5699 5695 5690 5685 5682 5682 5680 5676 5673 5670 5667 5666 5667 5665 5664 5665 5667 5669 5670 5672 5673 5674 5675 5676 5676 5675 5674 5674 5675 5675 5675 5677 5677
5759 5752 5745 5738 5730 5723 5717 5709 5702 5696 5688 5682 5679 5677 5672 5665 5665 5664 5662 5659 5656 5654 5653 5654 5654 5653 5653 5656 5659 5661 5663 5665 5667 5668 5669 5670 5671 5670 5671 5671 5672 5673 5674 5675
Wind_Speed
13 16 18 19 21 24 24 24 27 31 34 35 41 44 45 46 46 46 45 45 45 46 47 48 50 50 50 50 50 51 51 52 52 55 54 57 61 63 59 59 61 60 57 56
18 21 19 20 22 23 24 25 27 27 28 28 32 34 36 39 41 43 43 43 43 43 44 45 45 45 45 47 48 50 51 53 54 53 51 57 65 63 53 57 64 67 60 55
23 24 23 24 26 26 27 29 31 31 31 31 35 32 34 34 36 38 39 40 40 39 38 40 41 42 44 45 46 47 46 48 48 47 49 50 53 59 61 66 71 66 57 52
24 24 25 27 29 27 29 32 32 32 31 32 36 35 37 39 37 39 41 42 42 41 40 41 42 42 42 43 43 43 43 44 44 44 45 47 48 47 51 56 59 60 57 51
27 26 27 29 31 29 32 32 31 30 29 30 30 32 30 35 34 36 39 40 39 38 38 39 39 38 37 37 36 36 38 40 41 40 42 45 49 49 49 50 50 49 49 49
16 18 19 20 21 22 23 24 25 26 25 24 26 26 23 28 29 31 31 31 31 30 31 31 31 31 32 33 34 35 38 40 42 42 42 44 47 49 49 48 47 45 43 45
9 11 12 12 12 14 15 16 16 16 15 18 25 24 25 27 27 28 29 29 28 28 29 30 31 32 34 37 38 39 40 41 41 43 45 47 48 50 51 49 45 42 42 43
9 11 13 12 11 14 14 14 15 14 13 15 18 20 23 24 26 27 28 29 30 30 31 32 32 32 34 37 39 40 39 39 42 44 47 49 48 51 52 48 40 33 32 35
7 8 8 9 9 10 11 11 13 15 17 17 18 19 22 24 28 28 29 30 32 32 33 34 34 34 36 37 38 38 38 40 44 47 49 45 47 47 46 43 36 28 26 26
5 8 11 12 12 13 13 15 18 21 22 25 24 25 27 30 33 33 31 31 33 33 34 35 36 36 37 36 37 38 39 41 45 44 42 41 38 36 37 37 38 32 25 21
9 11 14 15 15 17 20 22 24 26 29 32 34 31 29 33 38 40 37 34 35 35 36 37 38 38 38 37 36 37 38 41 40 37 35 29 29 27 32 37 35 32 26 22
17 17 18 19 21 23 24 23 27 31 33 35 38 36 32 36 42 44 40 36 36 35 36 36 37 38 37 35 31 34 37 38 37 36 29 25 21 22 23 23 23 21 28 29
13 15 16 17 20 23 23 23 26 30 33 34 37 34 36 35 40 40 39 37 35 31 34 35 35 34 33 30 28 32 31 32 36 29 16 17 17 16 18 20 24 28 29 28
12 13 14 16 19 23 24 25 27 29 29 30 29 31 30 31 33 34 36 34 32 28 30 31 31 30 29 26 27 27 27 30 34 29 35 29 23 19 17 22 27 33 34 30
14 15 17 17 19 22 22 22 26 29 26 28 29 31 31 33 33 34 33 32 30 29 29 31 30 27 25 24 25 24 26 31 35 32 31 31 28 25 17 10 17 24 25 25
17 17 18 18 22 22 21 24 27 28 29 30 32 32 32 30 32 33 33 32 28 26 27 29 25 23 22 21 21 22 24 30 32 27 22 20 21 17 15 11 9 12 15 17
19 20 20 20 21 20 18 21 23 26 25 30 32 32 31 32 32 32 32 28 26 27 26 25 22 21 19 16 16 19 22 26 26 20 15 15 18 21 18 16 15 15 18 19
21 22 22 19 18 17 18 20 23 24 25 31 30 29 31 33 34 35 34 30 26 24 25 25 23 20 18 16 14 15 16 17 18 16 12 11 14 17 18 16 18 20 17 17
25 25 26 26 22 21 22 20 23 25 24 31 32 32 34 34 34 34 37 33 29 24 25 25 24 21 18 17 15 13 13 14 14 14 13 12 13 14 16 17 21 22 22 21
26 26 26 27 28 24 27 27 29 30 31 31 30 31 34 37 36 34 37 36 33 26 24 24 24 22 18 15 14 12 9 8 10 12 14 17 18 20 21 20 22 26 26 23
28 30 31 32 31 32 32 32 33 35 36 36 35 34 34 36 37 36 36 37 35 31 25 23 23 24 19 14 13 11 8 6 6 8 10 14 16 17 16 16 20 23 22 20
30 33 36 37 37 37 36 38 39 41 41 40 39 40 40 39 37 37 37 36 36 34 28 22 22 23 20 19 18 17 14 11 10 12 12 13 13 13 12 12 13 13 11 11
33 37 40 41 41 43 43 44 48 50 48 48 47 45 42 40 39 36 37 37 35 36 31 25 25 25 22 21 20 20 19 16 15 14 12 11 10 9 8 7 6 7 9 9
40 43 44 44 45 48 49 53 56 57 56 54 52 52 50 44 41 36 35 38 36 36 36 30 27 26 25 25 24 22 20 18 17 14 11 8 6 5 5 5 5 7 8 9
46 47 47 47 51 52 52 55 57 59 62 62 58 51 49 46 46 44 39 37 40 39 37 33 30 29 29 29 27 26 25 21 19 16 13 10 7 6 5 6 7 7 8 9
45 46 48 50 54 56 55 58 61 61 64 65 60 49 45 51 49 44 43 40 40 39 39 35 33 33 29 29 29 27 25 23 21 20 17 16 13 11 10 10 9 9 10 10
Wind_Direction
242 244 247 251 252 255 257 258 260 263 263 261 261 262 264 267 269 271 272 272 271 271 272 272 273 273 273 273 274 274 274 272 271 270 268 266 262 260 257 263 265 264 265 268
247 250 252 257 259 261 262 263 262 265 265 267 267 266 263 264 265 267 269 271 271 270 270 271 272 273 273 274 274 273 273 275 275 275 280 277 261 260 261 268 271 267 267 273
250 255 257 260 262 263 265 265 266 266 267 268 268 270 268 263 264 266 268 270 272 271 270 271 272 273 272 273 274 276 275 276 278 282 283 282 270 267 268 272 268 269 275 283
258 260 262 264 264 263 267 267 271 273 273 269 271 271 273 273 271 270 269 269 270 272 273 274 274 274 274 275 275 275 276 277 278 278 278 276 274 272 270 271 268 270 275 277
262 264 264 265 267 267 266 269 271 273 274 273 273 274 275 280 280 276 273 272 273 274 276 277 279 279 279 279 280 280 280 281 280 277 274 273 273 273 273 273 272 276 278 279
262 265 266 267 270 270 271 274 275 274 276 280 273 274 280 282 281 281 281 280 279 278 279 280 282 283 283 285 286 286 285 285 283 280 276 274 277 279 277 275 277 278 278 278
278 279 277 276 279 279 278 280 281 283 279 271 273 272 272 280 281 282 285 286 285 285 287 289 290 291 291 291 292 292 291 290 288 286 282 277 278 277 275 273 277 278 276 277
280 273 272 268 267 267 270 276 278 273 265 269 276 275 275 280 282 283 283 284 283 286 289 289 289 291 291 291 292 293 293 293 292 293 289 281 275 273 272 271 272 272 271 271
308 305 304 300 293 288 285 277 283 289 288 286 285 284 283 284 284 284 282 281 283 285 286 286 287 289 292 293 294 294 297 299 300 297 291 282 272 267 266 263 260 256 252 253
325 313 309 308 303 301 302 298 297 298 295 290 286 287 286 288 287 285 284 284 285 287 287 289 292 293 296 297 295 298 306 307 306 298 286 277 266 263 260 253 251 248 244 245
289 292 290 295 293 293 296 296 295 292 289 289 290 286 287 287 288 288 290 288 286 287 288 292 296 299 302 302 298 303 308 307 307 296 285 270 254 250 243 238 233 243 244 233
288 289 285 284 285 284 283 287 292 295 296 295 293 293 290 288 288 289 290 288 286 285 287 292 297 300 303 302 301 309 309 304 304 299 280 248 219 219 210 214 220 238 237 227
297 299 294 296 295 291 293 294 293 293 295 294 297 305 304 300 295 294 293 287 283 284 287 293 299 302 304 303 307 313 309 306 304 289 258 238 238 237 230 246 255 243 239 240
318 314 306 303 297 298 306 307 300 296 299 302 312 311 311 307 305 304 302 295 285 282 285 292 299 304 306 303 311 312 304 305 306 285 257 285 287 277 256 246 238 232 236 236
322 323 320 318 311 311 315 304 294 296 302 306 310 310 312 313 316 315 312 302 293 280 281 287 293 300 304 304 314 309 303 307 307 297 286 284 277 283 278 263 247 238 242 243
326 327 324 323 318 320 320 306 304 307 314 314 314 317 315 313 314 317 314 307 295 282 281 281 286 298 301 304 318 313 312 320 316 300 278 275 273 280 282 284 278 260 253 252
328 329 328 332 327 327 322 312 313 318 321 318 325 330 322 320 322 321 320 320 301 283 279 277 284 295 297 298 315 316 318 331 328 313 278 266 267 280 285 286 288 281 269 262
329 328 328 329 332 335 326 317 316 316 315 314 319 318 316 320 321 320 319 318 309 293 269 269 282 289 291 285 297 308 319 332 332 315 287 263 264 276 283 287 289 289 283 274
327 326 328 329 329 334 319 317 318 316 311 310 312 312 312 315 316 316 314 318 310 299 274 263 278 284 284 277 276 286 300 311 316 310 301 287 274 268 264 265 269 273 271 272
323 322 319 316 317 323 313 317 315 313 308 307 305 305 305 307 311 308 308 313 312 305 285 258 270 279 275 271 263 265 275 288 299 302 302 295 287 278 271 266 262 264 269 271
318 315 311 310 311 313 310 309 306 304 303 305 302 300 296 297 301 303 304 305 310 307 295 257 263 271 262 254 249 240 238 254 289 297 298 298 294 289 285 274 264 265 263 256
310 308 307 308 311 307 306 305 302 299 300 302 299 297 296 296 296 295 298 299 303 306 299 266 255 263 255 243 243 242 236 245 274 286 288 289 290 292 286 272 261 253 239 239
303 300 300 303 304 303 303 302 300 301 301 300 299 297 294 293 291 290 290 293 295 298 297 280 256 250 250 246 244 243 238 250 268 275 282 287 287 274 260 240 207 203 219 233
305 301 303 304 303 300 300 299 298 301 303 303 303 301 296 290 286 285 283 284 285 288 289 285 271 256 246 248 245 242 240 248 257 258 263 277 283 260 228 210 190 198 217 228
312 310 307 304 299 296 295 293 293 298 301 303 305 303 297 290 290 285 282 280 281 283 280 279 274 269 248 246 247 245 245 245 245 245 247 247 248 245 237 226 219 215 221 232
314 308 304 301 298 296 294 293 292 294 295 295 297 291 278 284 292 281 272 274 275 276 275 274 272 273 252 238 241 240 239 238 237 239 241 242 240 239 240 242 237 234 232 239